Theta_e
340 324 327 330 342 334 332 345 332 339 337 335 325 319 320 332 338 341 339 337 340 343 339 337 343 343 343 341 341 340 339 338 332 331 334 337 338 338 338 337 334 333 330
341 325 324 326 328 329 334 348 332 333 326 324 323 317 327 329 332 338 341 338 341 342 340 334 335 336 344 342 341 338 337 336 338 342 343 340 338 339 338 336 334 333 333
344 328 324 323 324 327 334 345 329 322 322 323 319 312 314 320 325 326 331 339 337 338 340 335 342 335 341 340 336 333 335 337 339 342 344 342 340 338 336 336 335 334 333
344 340 328 325 325 329 342 341 325 322 324 322 316 311 311 313 318 325 322 331 338 335 337 337 341 341 341 341 339 333 333 335 343 344 344 342 341 338 337 338 337 334 333
342 347 344 328 327 326 328 324 323 323 325 324 319 313 310 310 312 316 318 319 328 327 333 338 337 339 338 341 340 338 336 339 340 340 340 339 341 338 334 337 334 337 334
342 343 328 327 329 329 329 327 325 325 326 324 320 315 311 310 311 311 312 314 315 316 332 332 337 338 337 337 337 340 338 340 339 340 340 339 341 337 336 333 331 332 335
342 342 326 328 331 330 331 331 330 328 328 327 322 318 315 311 311 311 311 310 310 311 315 321 332 337 336 338 335 335 340 340 338 338 337 335 337 336 337 334 330 327 330
341 343 332 326 327 327 327 330 332 329 330 330 331 324 319 315 311 311 311 310 310 310 310 311 318 329 335 335 338 335 338 337 340 338 336 336 332 322 326 328 328 327 327
342 342 342 343 340 335 328 327 329 328 324 324 328 330 327 321 317 312 311 311 310 310 311 310 310 318 326 332 331 334 335 337 338 337 337 336 336 325 320 330 332 330 325
342 340 342 343 343 345 336 337 343 343 335 328 324 322 324 328 326 325 315 312 311 311 310 311 310 311 315 322 334 327 331 333 337 338 335 336 335 327 335 334 333 332 329
342 341 341 340 340 345 348 342 345 344 344 344 342 340 335 329 330 335 330 324 315 312 311 310 311 311 311 313 319 316 320 331 336 338 335 336 335 330 322 331 329 328 334
330 331 336 339 342 339 343 345 345 344 344 344 344 343 342 340 337 337 334 331 327 320 313 311 311 310 310 310 312 331 330 319 330 333 336 335 335 333 325 320 323 324 326
323 323 324 328 333 337 337 341 343 342 344 343 344 343 343 342 340 339 337 334 332 327 326 322 318 314 311 311 321 326 327 324 332 329 331 332 333 331 325 321 319 319 317
317 317 318 322 326 335 340 338 341 342 342 342 342 342 341 341 341 341 339 336 335 333 329 325 323 321 319 315 312 314 318 324 327 331 332 331 329 326 321 319 318 317 316
313 312 312 315 317 321 324 325 326 331 336 338 339 340 340 340 339 339 339 339 337 335 333 329 325 321 320 318 316 313 315 320 323 328 330 330 331 327 320 315 315 315 312
310 310 309 310 310 311 312 313 313 318 319 321 324 327 334 337 338 338 337 337 337 337 335 333 328 325 320 318 317 315 314 314 318 323 326 328 327 321 314 311 311 312 310
310 309 309 309 309 309 309 309 310 309 310 310 312 314 315 314 318 325 330 335 336 336 336 336 332 327 324 319 317 316 314 314 312 317 321 322 320 313 311 309 309 309 309
310 310 309 309 309 309 309 309 309 309 309 308 308 309 309 308 308 308 310 317 321 325 327 332 335 332 326 323 319 318 316 314 313 312 315 318 316 312 310 310 309 308 308
309 309 309 308 308 308 308 308 308 308 307 307 307 307 307 307 307 307 307 307 309 315 316 318 321 330 331 329 324 320 318 316 314 313 312 315 316 313 310 309 309 309 308
308 308 308 308 307 307 307 307 306 305 305 306 305 305 306 306 306 306 306 306 306 308 310 313 316 316 325 330 329 325 320 319 317 314 313 312 314 313 312 310 309 309 309
308 308 308 307 307 306 306 306 305 304 305 304 303 304 304 305 305 305 304 305 306 308 308 309 310 312 313 312 323 329 326 322 319 316 315 313 312 313 312 311 309 309 309
309 309 308 307 307 306 306 306 305 305 305 304 303 304 305 305 305 305 305 305 306 307 307 308 308 309 311 313 311 315 324 324 324 318 317 315 314 312 312 312 311 309 309
309 309 308 308 307 306 306 305 305 304 303 303 303 303 303 303 304 305 305 305 305 305 306 306 306 307 308 309 312 312 319 319 320 321 320 319 315 315 312 312 312 311 310
308 308 308 307 307 307 306 305 304 303 302 302 303 302 303 303 303 304 305 305 305 305 305 305 305 305 306 307 310 312 312 314 318 318 320 319 317 314 315 312 312 312 313
307 307 307 307 307 306 305 304 303 302 302 302 302 302 302 302 302 303 303 303 304 304 305 305 305 304 304 304 305 308 309 311 311 314 317 319 318 317 314 314 313 312 313
307 307 307 307 305 304 304 303 303 302 302 302 302 301 301 301 302 302 303 303 303 304 304 304 305 305 304 304 305 306 308 311 312 311 312 314 315 318 317 314 313 312 312
Wind_Speed
6 4 5 5 5 5 6 4 6 5 4 6 7 7 5 4 6 8 8 8 9 10 11 9 10 9 10 10 11 12 12 12 12 12 13 14 14 14 14 15 15 17 17
6 5 5 5 4 5 5 3 3 4 4 6 7 6 6 5 4 4 6 5 7 8 10 10 9 8 10 9 9 9 11 12 13 13 12 13 12 11 12 13 15 16 17
3 4 4 3 3 5 5 1 2 3 4 6 7 7 5 5 5 3 2 4 4 5 7 8 10 10 11 9 9 9 11 13 11 10 10 10 12 9 11 13 14 15 17
3 5 7 4 3 5 4 3 1 2 4 7 8 8 6 5 3 2 5 2 3 2 4 4 6 6 7 6 7 8 10 14 12 9 7 7 6 7 10 11 13 14 16
6 8 3 2 3 4 2 0 2 2 4 5 7 7 7 5 3 2 4 3 2 4 1 1 1 2 3 2 3 6 10 13 11 7 3 4 2 6 7 7 10 11 12
6 3 1 1 2 2 1 1 2 2 2 3 4 5 5 5 4 3 3 3 3 4 2 3 1 2 2 2 1 4 8 10 9 5 3 3 4 4 4 5 6 7 9
5 3 5 3 2 1 1 2 3 3 2 3 4 5 5 4 3 3 4 4 4 3 3 3 5 5 6 4 2 3 6 8 6 3 2 4 3 5 0 2 4 5 5
7 1 10 10 8 7 5 4 6 5 5 5 6 6 6 5 5 4 5 4 4 4 3 5 7 7 7 7 4 3 5 4 5 2 5 8 7 6 5 2 2 1 2
6 2 3 5 9 10 9 8 10 10 8 6 7 6 7 7 7 6 6 5 5 5 5 6 6 8 9 8 8 7 6 5 6 2 6 8 7 7 4 2 1 1 2
4 4 4 7 7 7 11 9 11 12 11 9 8 7 9 9 8 8 8 7 6 7 7 7 7 8 9 9 9 9 10 9 7 7 11 12 12 9 4 2 2 2 3
1 3 4 5 5 4 2 7 8 8 9 10 10 10 14 11 9 15 12 11 11 10 10 10 10 9 9 11 11 11 12 11 10 7 10 15 15 13 9 8 6 3 4
5 5 5 5 8 4 9 5 5 8 7 10 11 13 8 12 7 11 19 18 15 13 12 11 11 12 11 12 11 9 14 13 13 15 14 16 18 16 12 11 11 10 8
6 7 8 8 5 5 7 11 13 14 10 12 10 7 8 7 6 12 15 16 17 16 13 13 11 11 12 11 9 13 13 11 12 14 19 20 19 17 16 13 12 12 12
9 11 11 11 8 3 3 11 11 14 16 14 16 16 13 14 12 10 6 10 17 19 18 13 15 16 17 14 15 16 15 13 13 11 18 19 16 17 18 15 14 14 14
10 10 13 12 13 10 9 10 10 7 9 13 15 17 20 19 19 19 17 13 9 12 17 16 16 16 17 20 17 15 14 15 16 14 19 21 22 20 19 17 16 16 15
10 11 13 15 14 12 12 13 13 10 11 12 10 10 13 19 22 23 23 24 23 18 14 15 17 18 18 18 20 18 20 20 20 18 23 24 26 22 19 19 17 17 16
9 8 12 12 11 11 13 14 14 15 11 10 9 9 13 13 13 14 17 22 26 29 29 22 21 20 21 21 22 22 23 23 23 23 25 28 28 22 18 19 19 18 18
7 9 10 11 11 10 11 9 8 10 9 11 11 14 15 16 16 17 15 15 17 19 22 28 32 29 27 26 27 28 27 25 26 26 27 29 29 25 21 19 20 19 20
5 6 7 8 10 12 9 9 9 8 10 13 14 15 16 16 16 20 21 19 15 18 23 22 21 25 30 34 29 26 28 25 26 29 29 29 31 30 25 22 20 20 21
4 4 6 8 9 11 12 12 14 14 12 13 18 20 17 20 20 18 21 22 19 20 19 20 23 23 25 28 29 29 28 25 30 30 33 31 32 33 30 27 25 23 22
1 2 4 8 12 14 18 19 19 21 20 23 24 21 20 21 24 23 23 20 21 20 20 19 22 22 26 22 31 33 32 35 26 29 34 35 32 35 33 31 30 27 24
5 5 7 9 13 16 18 17 19 19 22 27 25 22 20 24 26 25 26 24 21 22 21 22 21 21 24 22 24 26 25 31 39 37 31 34 34 34 35 33 32 31 28
6 8 13 16 12 13 15 19 22 26 28 30 28 28 30 27 25 27 29 25 24 25 26 25 23 22 24 24 23 20 13 12 20 22 32 37 35 33 36 36 33 31 31
9 10 14 12 14 14 17 21 26 27 30 30 32 32 32 28 29 28 28 29 29 28 28 27 25 23 23 22 20 22 23 27 25 13 29 22 29 34 36 35 35 32 30
11 13 15 16 13 17 21 25 27 28 30 34 33 33 35 33 31 29 30 29 32 32 31 32 30 27 27 30 28 25 26 27 27 32 29 35 22 11 27 34 33 33 30
9 12 13 15 17 19 23 26 27 30 31 33 33 33 34 32 31 30 29 30 31 30 32 33 32 34 33 28 28 28 28 26 26 28 30 38 42 34 24 21 19 26 29
Wind_Direction
316 142 142 143 122 108 96 82 59 68 44 47 32 30 38 52 55 51 53 51 54 53 52 64 78 59 66 74 83 89 91 88 78 70 61 55 61 59 56 48 47 51 49
252 143 134 151 140 126 111 94 54 26 17 24 23 26 35 34 39 47 41 46 54 49 48 63 64 82 81 78 87 94 92 84 74 67 66 50 45 56 54 48 45 49 46
151 101 119 120 114 131 121 190 22 14 19 34 29 31 32 32 32 25 343 14 25 31 43 68 67 61 75 76 77 84 93 89 79 59 53 56 18 43 51 43 43 47 44
137 39 84 82 109 133 128 214 338 61 43 45 38 35 37 38 26 9 354 303 4 10 30 53 90 88 88 67 70 86 94 96 75 54 79 41 353 49 56 48 46 40 41
111 158 274 52 99 121 165 114 61 49 43 21 23 28 36 43 25 352 345 19 335 334 278 35 99 114 121 99 75 98 103 102 86 67 6 308 314 62 54 57 46 42 41
135 217 313 108 119 129 120 13 10 14 8 2 10 15 25 37 31 18 5 359 340 339 274 256 261 239 230 195 123 126 124 111 84 81 72 346 15 0 60 62 50 44 41
119 339 53 33 13 8 345 331 311 289 302 335 342 350 0 14 15 6 0 352 340 321 279 266 240 247 254 263 244 179 162 124 90 83 300 250 282 294 276 40 34 30 42
115 61 46 41 30 20 14 357 338 321 308 324 321 324 332 342 346 341 343 344 342 327 293 267 252 243 257 258 265 237 200 172 127 246 272 276 293 288 259 265 312 333 57
93 68 324 23 341 6 19 37 26 10 352 320 306 309 316 323 327 325 317 320 328 331 318 297 272 248 251 258 263 263 248 218 161 169 262 277 283 310 234 235 263 182 177
126 93 15 327 307 321 320 334 348 345 355 357 2 345 329 310 312 325 315 319 317 319 315 306 289 268 258 256 259 276 266 249 213 224 241 268 274 279 229 204 199 206 199
208 6 190 201 7 317 80 282 303 320 336 349 8 352 360 0 337 327 321 327 321 310 303 301 299 288 271 263 264 284 280 256 227 232 262 264 271 274 250 237 239 239 210
349 308 278 257 254 327 345 332 315 309 316 311 310 307 318 346 329 300 306 306 310 302 295 289 290 291 281 273 269 290 297 272 245 222 232 251 262 270 263 249 248 247 237
55 44 28 22 305 6 335 272 266 277 281 284 296 287 288 261 279 312 325 328 322 312 302 297 293 286 284 273 263 269 282 285 239 265 242 247 257 264 262 255 250 247 245
59 60 54 51 48 56 299 268 281 270 270 285 278 277 282 278 284 287 266 301 308 305 310 313 306 300 292 277 269 249 254 250 271 250 267 278 272 264 260 254 252 251 250
67 62 62 63 52 43 33 29 20 351 293 290 284 278 273 274 276 277 276 272 276 297 302 297 279 277 280 284 282 266 246 242 256 245 249 257 263 267 262 254 250 252 250
75 64 66 56 48 47 46 35 23 41 22 21 1 324 288 280 277 277 275 275 271 268 264 264 274 281 272 276 272 274 258 246 230 240 247 252 259 265 257 254 249 248 250
68 53 65 51 55 51 44 35 20 10 11 7 4 347 327 334 327 308 291 280 275 268 267 261 255 252 254 256 259 256 263 264 249 234 240 249 255 260 254 248 249 246 247
76 47 31 44 27 33 31 21 18 357 7 351 355 332 322 326 322 314 306 301 303 296 287 274 259 257 256 255 257 259 255 253 259 249 240 247 254 255 252 247 244 243 243
83 64 38 20 22 1 7 350 346 338 345 335 321 313 314 316 315 314 309 304 298 297 303 302 296 267 266 256 260 266 260 253 256 256 246 242 251 256 252 248 244 242 240
97 41 21 359 355 350 341 333 333 336 335 322 323 321 325 316 314 310 308 309 304 295 294 302 302 295 271 262 263 257 254 263 255 254 254 245 247 252 252 248 244 242 240
13 311 2 336 335 342 337 336 335 337 331 322 326 322 317 306 309 305 305 311 305 298 296 296 295 300 299 287 274 266 266 250 251 255 255 252 243 250 252 248 246 244 242
244 294 298 311 326 334 327 329 323 322 308 311 320 312 302 297 297 300 301 298 299 299 297 290 288 292 290 296 293 286 288 270 254 245 252 257 254 243 251 251 248 246 244
285 277 289 305 313 310 319 310 311 307 312 315 317 309 306 308 299 296 298 295 290 288 289 288 289 283 287 288 284 281 274 256 269 261 257 252 254 249 247 252 251 247 245
267 279 287 291 286 300 299 301 308 312 311 311 306 308 309 305 298 294 292 291 289 289 285 285 285 282 279 286 285 273 273 271 275 278 249 242 237 247 249 243 253 253 246
268 272 265 277 294 292 296 311 310 307 304 305 306 304 303 304 302 300 298 293 286 283 283 278 277 278 276 273 274 278 278 270 271 266 271 257 242 243 233 244 247 252 253
267 269 277 281 294 297 308 307 305 306 307 307 308 307 305 304 301 297 293 285 283 286 284 280 278 271 269 272 274 268 267 266 262 266 265 263 263 245 255 226 226 243 255